Theta_e
313 313 314 314 314 315 316 318 319 319 319 318 318 318 318 318 318 317 316 315 315 317 318 317 316 316 316 315 314 315 314 314 314 314 314 314 315 315 317 319 320 319 318 317 316 315 315 315 315 315 316 317 319 319 319 319 317 320 331 333 324 323 323 319 320 315 317 322 313 308 311 313 314 309 309 310 309 308 308 308 308 309 308 309 309 308 308 306
313 313 313 313 313 314 315 316 318 318 319 318 318 318 318 318 317 317 315 314 314 315 317 318 317 316 316 316 314 314 314 315 314 314 315 314 315 316 317 319 320 320 319 319 318 317 317 317 315 314 316 317 318 319 318 318 316 320 329 326 322 327 321 314 315 311 313 317 312 309 310 311 313 310 309 311 308 306 308 307 306 307 307 308 308 307 307 306
312 312 312 313 313 313 313 315 316 317 318 318 318 318 318 317 317 317 315 314 314 313 315 318 318 317 316 316 315 316 316 316 315 315 315 314 315 316 317 319 320 320 319 319 319 319 319 319 317 314 315 317 317 318 317 317 316 316 319 322 325 325 316 311 312 312 313 314 311 309 310 310 311 310 310 310 307 305 307 308 305 305 307 306 306 306 306 305
311 312 312 312 312 312 313 313 314 315 316 317 318 318 318 317 317 316 315 315 315 314 314 315 318 318 317 317 316 316 317 318 317 315 315 314 316 316 316 318 319 319 319 319 318 319 320 320 318 314 314 316 316 318 317 316 316 314 316 320 320 314 314 314 312 313 313 312 312 310 310 310 310 310 309 308 309 308 306 309 309 309 309 307 306 306 305 305
311 311 311 311 311 312 312 312 313 313 314 316 317 317 317 317 317 317 316 316 316 316 314 314 316 318 318 318 317 317 318 320 318 315 315 315 316 317 316 317 318 319 318 319 318 319 320 320 318 315 316 316 316 317 315 313 314 314 313 314 312 310 314 315 312 313 313 312 312 310 311 312 310 309 309 308 313 313 309 311 312 311 311 310 308 306 305 304
311 311 311 311 311 311 311 311 311 312 312 314 315 316 316 316 317 317 316 316 316 316 316 314 314 316 318 318 318 317 318 320 317 315 315 315 316 317 316 316 318 318 318 318 318 318 320 320 318 315 315 316 316 316 315 312 313 316 313 310 311 311 313 314 313 314 313 312 311 311 312 311 309 309 309 308 311 313 311 312 312 310 310 309 308 306 305 304
310 310 310 310 310 310 310 310 311 310 311 311 312 313 314 315 315 316 316 316 316 316 316 315 314 316 317 317 318 319 319 319 317 316 315 315 316 316 317 317 317 318 318 317 318 318 319 320 318 314 314 315 314 314 314 312 312 317 315 310 312 311 312 313 313 314 313 312 312 311 311 310 310 312 309 308 311 312 311 312 311 310 309 307 307 306 305 304
310 310 310 310 310 310 310 310 310 310 310 310 311 311 312 312 313 314 314 315 315 315 316 315 315 315 316 317 318 319 319 319 317 315 315 316 316 317 317 316 316 317 317 317 317 318 318 319 317 313 313 314 314 314 313 312 312 316 315 311 311 312 312 313 313 313 313 312 311 310 310 309 311 310 307 308 312 312 311 311 311 310 308 307 306 306 305 304
310 310 310 310 310 310 310 310 310 310 310 310 310 310 311 311 311 312 312 313 313 314 315 315 315 315 316 316 317 318 318 318 318 315 315 315 316 316 316 316 316 316 317 317 317 317 318 319 316 314 314 313 314 313 311 313 313 312 313 312 311 312 312 313 313 313 313 312 310 309 309 309 309 308 308 310 311 310 310 310 310 310 308 306 305 305 305 303
310 310 310 310 310 310 310 310 310 310 310 310 310 310 310 310 310 311 311 312 312 313 314 315 315 315 315 316 317 318 318 318 319 317 315 315 316 316 316 316 316 316 316 317 317 317 318 318 317 315 315 314 313 311 311 313 313 311 311 311 311 311 311 311 312 312 311 310 309 310 310 308 307 308 310 310 310 310 309 309 309 309 307 306 305 304 304 302
310 310 310 310 310 310 309 310 310 310 310 310 310 310 310 310 310 310 310 311 311 312 313 314 315 315 315 316 316 316 316 317 318 319 318 315 315 316 316 316 316 316 316 316 316 316 317 318 317 315 316 315 313 311 310 311 312 311 310 311 310 309 310 309 310 310 310 310 308 309 310 307 306 308 310 309 309 309 308 308 308 307 307 306 305 304 303 302
310 310 310 310 310 310 309 310 310 310 310 310 310 310 310 310 310 310 310 310 311 311 312 314 315 315 315 315 316 316 316 317 318 319 318 316 315 315 316 315 315 315 315 316 316 316 317 318 316 316 315 314 313 311 312 311 311 310 310 314 314 314 315 309 308 309 308 311 309 308 311 310 309 309 309 308 308 308 307 307 307 306 306 305 304 303 302 301
310 310 310 310 310 310 309 310 310 310 310 310 310 310 310 310 310 311 310 310 310 311 312 314 315 315 315 315 316 316 316 317 317 318 317 316 315 315 315 315 315 315 316 316 316 315 317 318 315 316 315 313 313 312 312 310 309 311 309 313 319 323 322 309 307 309 307 310 309 308 314 315 312 309 307 307 307 307 305 306 306 305 305 303 303 302 301 301
310 310 310 310 310 310 310 310 310 310 310 310 310 310 310 310 310 311 310 310 310 311 313 314 314 315 315 315 315 316 317 317 317 318 317 315 315 315 315 315 315 315 315 315 316 315 316 317 315 315 314 313 312 310 314 314 314 315 310 315 321 319 325 315 306 308 309 310 308 309 315 315 314 310 307 307 306 306 305 305 305 304 304 303 303 302 301 301
309 310 310 310 310 309 310 310 310 310 310 310 310 310 310 310 311 311 310 311 311 312 313 314 314 315 316 316 316 316 317 317 317 317 317 315 314 314 314 314 314 315 315 315 316 315 316 316 314 314 313 312 313 315 321 322 321 320 314 322 325 316 324 321 306 305 311 311 307 309 315 314 313 310 307 307 306 306 305 304 305 304 304 303 302 302 301 301
310 310 310 310 310 310 310 310 310 310 310 310 310 310 310 310 310 311 311 311 311 311 312 314 315 315 316 316 316 316 316 317 317 317 316 315 314 314 314 314 315 315 314 315 316 315 315 316 314 313 312 310 318 326 327 325 327 325 317 321 327 318 319 319 309 304 307 310 309 309 314 316 314 307 305 306 305 304 303 303 304 303 303 302 302 302 301 300
310 310 310 310 310 310 310 310 310 310 310 310 310 310 310 309 310 311 311 311 311 312 312 315 316 316 318 317 316 316 317 317 316 316 315 315 314 314 314 314 315 314 314 315 316 315 315 315 313 312 313 311 317 327 325 325 332 329 320 319 322 318 314 317 316 307 304 310 311 310 311 313 313 307 305 305 305 304 301 301 303 303 302 301 301 300 300 300
310 310 310 310 310 310 310 310 310 309 310 310 309 310 310 310 311 311 311 311 312 314 314 316 317 317 317 316 317 317 317 317 316 316 315 315 315 314 315 315 315 314 314 315 315 316 315 312 314 319 322 317 320 327 324 325 330 325 321 320 319 317 313 314 316 310 306 310 311 311 311 310 310 308 305 305 305 303 301 302 304 302 301 300 299 299 299 299
311 311 311 310 310 310 310 310 309 309 309 309 309 309 309 310 310 310 312 313 314 314 315 316 317 317 315 314 315 315 316 317 316 316 315 315 315 315 315 314 314 314 314 317 317 315 313 313 316 322 326 324 322 323 324 328 326 319 319 319 317 317 313 312 313 308 305 308 310 309 310 309 309 309 306 306 305 302 301 302 302 301 300 299 299 299 299 299
311 311 311 311 310 309 310 309 309 309 309 309 309 309 309 310 312 313 313 314 315 314 313 314 314 314 314 314 314 314 315 315 315 316 315 316 316 315 315 313 314 314 315 321 321 312 311 317 321 322 323 328 329 320 318 322 317 313 315 315 314 314 312 311 311 307 303 307 311 309 308 308 307 308 307 305 304 301 299 300 300 300 300 299 299 299 299 299
312 312 312 311 311 310 310 309 309 309 308 308 308 308 310 311 313 314 312 312 313 312 312 312 311 312 313 314 315 315 314 314 314 315 315 315 316 315 314 313 314 317 315 314 315 312 313 318 324 329 323 321 323 316 312 315 311 311 313 313 313 312 312 309 308 308 305 306 312 310 309 309 307 308 307 306 305 302 300 299 300 300 300 300 300 300 300 300
312 312 312 312 311 310 309 309 309 308 308 308 307 308 310 311 312 312 311 312 312 311 312 312 311 312 311 312 313 314 314 314 314 314 315 314 315 314 313 313 317 320 314 310 315 319 319 320 326 324 311 309 313 310 311 312 310 313 312 312 314 313 313 312 309 309 308 307 311 311 308 308 308 307 307 306 306 305 304 303 303 302 301 300 300 300 300 299
311 312 312 312 312 310 309 309 308 308 308 307 307 308 311 312 312 312 312 313 313 312 311 312 312 312 312 312 312 313 313 315 314 314 315 314 314 313 312 314 319 320 316 315 320 321 321 323 320 308 303 310 313 310 312 312 311 314 312 313 316 313 314 317 313 310 310 308 308 310 308 307 308 307 308 307 305 306 306 305 305 304 303 303 302 302 301 299
308 309 310 311 311 310 310 309 308 309 308 307 308 309 311 312 312 312 313 313 314 313 311 312 313 312 313 312 312 314 314 314 314 314 315 314 313 312 311 313 317 319 317 319 320 319 321 317 306 302 307 313 314 311 312 312 315 318 314 313 315 314 313 315 314 310 311 311 306 308 311 313 311 308 310 308 303 305 305 304 304 304 304 304 303 303 302 301
306 306 307 308 310 310 309 309 309 308 308 308 308 310 312 312 312 312 312 311 313 314 312 313 313 313 314 314 314 314 314 314 314 314 314 313 312 312 311 311 314 319 319 317 316 318 319 308 302 308 311 311 313 315 315 314 317 321 319 313 313 314 312 312 313 310 315 317 308 309 315 317 313 310 312 311 308 310 307 304 303 303 303 303 302 303 302 301
306 306 306 306 308 309 309 310 309 309 309 308 309 311 312 312 312 314 313 312 313 314 314 314 315 316 315 315 314 312 315 316 312 313 313 312 312 311 313 312 310 316 317 314 315 317 314 305 306 314 313 311 312 314 317 315 315 319 317 312 311 311 310 312 312 310 317 318 308 310 317 316 313 314 316 314 313 314 311 308 305 302 303 303 303 304 302 301
308 306 306 306 306 307 309 310 310 310 310 310 311 311 311 312 312 312 311 310 311 315 317 315 315 316 315 315 313 313 318 317 310 311 311 312 312 310 315 315 311 311 309 309 316 317 311 308 310 313 314 314 313 316 318 313 317 320 313 311 313 311 311 312 309 309 313 311 307 309 311 311 312 313 314 312 311 312 310 310 307 302 302 303 304 304 303 302
310 309 307 306 306 307 309 310 310 310 310 311 311 311 311 312 312 311 310 309 311 316 318 316 314 315 315 314 312 312 314 313 312 312 310 310 311 310 314 315 315 315 307 310 322 316 309 313 314 313 314 315 316 321 316 312 318 318 309 309 311 309 310 310 308 308 309 308 310 310 307 310 313 312 310 307 308 311 312 313 311 305 304 304 305 305 303 303
311 311 309 307 306 307 309 310 310 310 310 311 310 311 311 311 311 310 309 308 312 318 317 315 315 314 313 313 312 311 311 310 312 311 309 310 311 310 312 311 311 313 307 308 321 316 309 310 310 313 317 316 317 314 308 312 315 309 305 308 310 309 310 309 309 310 310 312 315 313 309 312 316 314 310 306 308 312 313 314 313 306 304 306 306 305 304 303
309 310 308 307 307 308 310 311 310 310 310 310 310 311 310 311 312 309 308 309 313 317 313 313 315 313 313 315 314 311 310 311 310 308 308 309 310 309 310 309 307 313 314 313 317 314 306 303 304 310 312 311 312 306 301 307 307 303 306 311 313 313 309 308 310 311 314 316 315 313 310 312 317 314 311 311 313 316 315 314 313 308 305 307 307 306 305 304
308 308 307 307 308 309 310 311 310 310 309 310 311 311 310 315 316 312 309 309 310 313 314 315 314 312 315 318 318 313 310 311 308 308 310 308 309 309 309 310 310 316 323 320 317 314 308 306 307 307 305 305 310 308 302 302 301 305 313 316 316 317 314 314 315 314 317 318 314 310 307 309 314 313 312 314 314 315 317 318 319 314 307 307 308 306 306 305
309 309 308 308 308 309 310 311 311 310 309 310 310 310 312 315 314 312 311 310 311 315 317 318 315 314 315 316 318 315 312 313 308 307 312 310 310 312 311 315 316 318 323 320 318 318 315 313 308 305 304 304 313 315 307 305 306 308 314 316 317 320 320 321 320 317 319 318 310 305 307 308 310 311 311 313 313 314 312 311 313 311 306 307 307 306 306 305
310 311 309 308 309 309 309 310 311 310 310 310 309 311 315 314 310 311 312 311 312 313 316 319 316 315 316 316 320 316 313 317 311 307 311 310 310 312 313 316 316 316 320 317 316 318 319 315 307 307 307 306 311 315 312 312 310 308 312 316 319 321 323 324 321 316 317 317 308 303 308 311 311 312 312 310 310 311 307 305 307 306 305 306 305 304 305 304
310 311 309 309 310 310 310 311 311 310 310 310 309 312 316 313 310 311 313 312 311 313 315 318 315 314 316 318 322 318 314 317 314 309 311 311 312 315 315 314 312 315 320 316 315 319 319 317 313 312 312 308 308 310 314 316 309 307 312 315 317 323 325 325 323 319 317 319 311 304 309 316 314 313 313 309 307 306 305 307 307 305 304 304 303 303 303 302
310 311 310 309 309 309 310 311 311 310 308 308 309 313 312 310 312 314 313 312 312 315 316 315 315 316 316 318 320 317 314 316 315 312 313 313 314 317 317 315 311 315 320 318 318 318 315 317 315 308 306 306 307 306 307 314 312 308 309 312 315 319 319 318 319 317 314 315 313 308 312 316 311 309 310 308 306 304 303 303 303 302 302 301 301 302 302 302
310 311 311 310 309 308 310 311 311 309 305 307 310 312 310 309 314 316 313 312 314 318 317 315 317 318 318 320 320 316 312 313 314 314 314 313 314 316 318 317 312 311 315 316 318 317 314 317 312 304 304 303 303 303 303 309 314 309 308 313 313 311 315 319 316 311 309 313 315 313 313 312 309 310 308 306 308 306 302 300 299 298 299 299 300 302 302 301
311 312 312 311 309 309 311 311 311 308 304 306 310 311 310 309 312 314 312 311 313 317 318 315 315 318 320 321 320 317 313 312 313 314 316 314 315 315 315 316 311 309 313 314 317 318 316 316 311 307 310 304 297 301 301 302 307 311 312 312 308 306 312 317 316 314 312 313 315 314 313 310 310 311 307 306 310 309 306 305 301 296 295 297 300 301 301 301
311 312 312 312 310 310 311 310 310 309 305 305 309 312 313 311 307 308 310 310 311 316 317 313 312 316 320 320 320 317 314 314 314 315 317 315 315 315 313 314 311 308 310 311 314 318 314 313 313 305 308 304 298 303 306 301 300 307 310 306 307 313 314 312 313 316 315 314 316 316 312 310 311 311 309 309 311 311 311 308 303 299 296 295 299 301 300 300
310 311 311 311 309 308 310 310 310 310 306 304 308 310 312 312 307 306 309 311 312 315 315 313 311 312 316 319 320 317 313 314 314 313 316 315 314 313 311 314 314 307 307 309 313 316 312 313 315 304 301 304 303 306 312 308 300 301 303 302 305 312 314 312 312 314 316 314 314 315 312 311 313 315 315 313 311 311 312 311 306 302 297 296 300 302 301 301
311 311 311 311 309 308 310 310 310 310 306 305 307 308 308 310 308 307 309 310 312 313 313 315 313 310 314 317 318 318 315 314 313 312 314 314 314 313 310 312 315 309 305 308 311 313 312 312 313 308 301 304 308 308 310 310 305 303 305 305 305 305 309 311 309 309 314 314 314 315 313 311 313 315 315 314 313 312 312 313 310 301 297 300 304 304 303 303
311 311 311 310 308 308 310 311 310 310 309 308 308 307 307 309 309 309 309 308 310 311 311 317 318 312 313 314 314 316 315 314 313 312 314 314 313 314 311 309 312 309 307 309 310 312 314 313 313 313 308 307 309 307 305 308 309 307 308 308 306 305 308 312 310 308 309 311 315 316 313 311 311 313 315 315 316 315 311 312 310 300 298 304 306 306 305 304
312 311 310 309 307 308 310 311 311 310 311 310 309 308 308 309 309 309 309 308 309 309 309 314 317 314 313 314 314 315 316 317 315 312 314 315 313 313 311 308 307 308 309 312 311 309 312 314 313 313 313 309 306 302 299 303 306 306 308 308 306 306 309 312 312 310 308 309 310 311 312 312 310 313 318 317 316 312 305 304 304 299 301 306 307 306 306 304
312 310 309 307 307 309 310 311 312 312 312 311 310 309 309 309 309 310 310 309 308 309 310 311 312 312 312 312 314 315 315 316 316 314 315 316 314 311 309 307 306 308 310 313 311 308 310 314 313 312 314 312 306 301 299 301 303 306 308 307 306 306 307 310 310 310 311 311 308 309 310 310 310 314 316 312 307 301 297 297 299 298 301 306 306 305 305 303
312 310 309 307 308 309 310 310 311 312 313 312 311 311 310 309 310 310 310 310 309 311 310 309 310 310 311 312 313 313 313 312 314 314 313 316 316 310 306 307 308 310 311 311 312 310 311 314 314 312 314 314 310 307 306 304 303 306 309 306 305 306 306 308 307 307 310 310 308 310 311 310 311 311 307 305 304 302 299 296 296 297 299 303 304 303 303 301
312 311 309 308 309 310 310 310 310 311 312 312 312 312 311 310 310 310 310 309 309 310 310 310 310 309 311 313 311 311 312 311 312 312 312 315 314 306 304 307 308 308 309 309 308 309 313 315 313 311 312 312 310 310 312 310 305 304 307 306 304 305 306 307 307 307 309 309 307 309 311 310 311 309 306 306 306 305 301 296 295 296 298 300 300 301 301 299
312 312 310 308 309 309 309 309 309 309 310 311 312 312 311 311 310 309 310 309 309 308 309 310 309 308 310 312 310 311 311 310 311 312 312 317 316 306 302 304 306 306 307 307 306 310 316 316 312 311 312 310 309 309 310 311 309 307 308 307 305 305 305 306 308 308 309 309 308 309 310 310 310 309 309 309 307 306 305 302 298 297 298 299 299 299 299 298
312 313 311 308 308 308 308 309 309 309 309 309 311 312 311 311 311 310 310 310 310 309 309 309 309 310 311 311 310 310 310 310 311 311 312 315 314 306 301 301 303 304 304 305 306 311 317 315 310 311 311 310 310 310 309 311 312 310 309 308 306 305 305 306 307 307 308 310 309 309 309 309 310 309 309 309 308 308 308 308 303 300 300 301 300 298 297 295
312 313 312 310 310 310 308 309 310 309 309 308 309 310 311 311 311 310 310 310 309 309 309 310 310 310 310 310 310 310 309 310 311 311 311 312 311 308 306 304 302 302 304 305 304 308 314 312 310 312 311 309 310 310 310 310 310 309 309 308 307 305 305 305 306 306 307 309 309 309 309 310 309 309 309 309 309 309 308 308 306 304 303 301 299 297 295 294
312 312 312 311 312 311 309 309 309 309 309 308 308 309 309 310 310 309 311 311 310 309 310 310 310 310 310 310 310 309 310 310 310 311 311 310 311 311 311 309 305 300 302 306 305 306 309 311 311 310 310 310 310 309 309 309 308 308 308 308 307 306 305 305 305 305 306 307 308 308 309 309 309 309 309 309 309 309 308 307 306 304 303 301 298 297 295 295
313 312 312 311 311 311 309 309 309 310 310 309 309 309 308 308 309 308 309 311 311 310 310 310 310 310 310 310 309 309 310 309 310 311 311 311 312 312 312 313 311 304 302 305 307 305 306 311 313 311 311 311 310 310 311 310 309 309 309 309 308 307 306 305 305 304 305 305 306 306 307 308 308 308 309 308 308 307 307 306 305 304 304 301 298 297 297 296
315 313 311 311 311 310 310 310 309 310 310 310 309 309 309 308 309 308 308 308 309 310 310 310 310 310 310 311 310 310 310 310 310 309 310 311 311 311 312 312 313 311 305 304 306 306 306 310 312 312 312 312 311 312 311 310 309 308 309 309 309 308 308 308 307 306 305 305 306 306 307 307 307 308 308 307 307 307 307 306 304 304 305 302 299 298 298 297
315 313 311 311 311 310 311 311 310 310 311 310 310 309 309 309 309 308 308 308 307 308 309 310 310 310 310 310 310 310 309 309 310 309 309 309 308 309 310 309 309 312 309 305 305 306 307 309 310 311 311 311 311 312 311 310 310 310 310 310 309 309 309 309 309 308 306 306 306 307 308 308 308 308 308 308 308 307 307 305 304 304 304 302 301 300 300 299
Wind_Speed
8 8 8 8 8 9 9 9 10 11 12 13 14 15 15 16 16 17 17 17 16 14 12 8 4 1 2 3 5 6 6 6 5 3 3 6 9 8 9 10 11 12 12 11 10 10 7 7 6 5 6 2 2 3 4 6 6 2 2 4 0 3 4 5 8 7 4 4 6 13 17 9 6 11 10 7 7 10 15 17 14 17 19 15 12 12 21 28
7 7 7 7 7 8 8 8 9 10 11 12 12 13 14 14 15 15 16 16 15 14 12 10 6 2 1 1 3 4 4 4 3 2 3 5 6 6 7 8 10 10 11 11 11 12 10 10 8 4 3 0 2 4 5 5 6 3 3 3 2 5 4 4 7 8 3 2 10 13 14 10 7 14 15 7 6 10 10 12 12 12 15 14 15 18 24 27
8 7 7 7 7 7 7 7 7 8 9 10 11 11 12 13 13 14 14 15 15 14 12 10 8 5 3 3 3 2 2 1 2 1 3 3 4 5 5 6 8 9 10 11 11 13 13 14 11 5 1 3 4 4 5 7 5 2 3 3 4 5 3 4 5 10 5 2 10 10 10 10 7 14 16 7 6 8 9 13 13 15 19 19 21 24 27 27
9 8 8 8 8 7 7 7 7 7 8 9 10 11 11 12 13 13 13 14 15 15 13 10 8 6 4 4 5 5 4 4 4 2 1 1 3 3 3 4 6 9 10 10 11 12 14 15 11 4 3 4 5 4 4 8 4 0 3 2 5 3 1 4 4 7 6 3 8 8 6 7 8 14 16 10 6 5 15 25 24 23 25 26 27 28 29 28
10 9 9 9 9 9 8 7 7 7 7 8 10 11 11 11 12 12 12 13 14 15 14 11 9 7 5 4 5 6 4 2 4 4 1 1 1 2 2 2 4 7 9 10 10 11 13 16 10 4 4 4 5 5 3 7 4 1 2 2 4 4 1 5 4 5 6 4 6 6 4 7 9 13 18 17 9 9 18 27 30 28 25 25 28 30 30 30
10 10 10 10 10 10 10 9 9 8 8 8 9 10 11 11 12 13 12 13 13 14 14 13 10 8 5 5 5 5 3 1 4 5 3 3 1 1 0 0 2 6 8 8 8 9 13 16 11 4 4 4 3 3 3 6 3 1 1 1 3 6 2 5 5 5 6 6 7 7 6 8 10 9 18 23 20 19 17 17 23 27 23 24 28 30 31 30
11 11 10 10 10 11 11 11 10 10 9 9 9 10 11 11 12 13 13 12 13 13 14 14 12 9 7 5 5 6 6 5 5 6 5 4 2 1 1 1 1 4 7 7 7 8 12 16 13 6 4 3 1 1 4 6 3 3 1 0 3 5 4 5 7 8 8 9 9 9 8 10 13 8 10 24 31 29 20 13 15 22 24 25 28 30 30 30
11 11 11 11 11 11 11 11 11 11 11 10 10 10 11 12 12 13 13 12 13 12 13 13 12 10 8 6 5 7 9 7 6 7 7 5 4 3 3 2 2 3 5 6 7 8 11 15 13 6 3 2 1 0 4 5 3 4 1 2 2 4 5 6 9 10 11 12 10 8 9 12 16 9 7 22 31 27 27 20 14 19 25 28 30 30 29 29
12 12 12 11 11 11 11 11 11 11 11 11 10 10 11 12 12 13 13 13 13 12 12 13 12 10 8 7 6 7 7 6 7 8 8 7 5 4 4 3 2 3 5 6 6 5 9 12 10 6 1 3 3 2 3 3 1 1 1 3 3 4 5 6 11 13 13 13 9 8 9 10 12 8 12 26 28 24 26 22 17 21 27 30 31 30 29 29
13 13 12 12 12 12 12 12 12 12 12 12 11 11 11 12 13 13 13 13 13 12 12 12 11 9 8 7 5 3 5 5 7 10 9 9 8 6 5 4 3 4 5 6 5 3 6 9 8 6 2 4 3 1 2 2 1 2 3 5 6 8 8 7 11 13 12 11 10 9 7 6 5 3 9 18 18 21 23 20 20 23 28 31 31 30 29 29
16 15 14 14 13 13 13 12 13 13 13 13 12 12 12 12 13 14 14 14 14 13 12 12 10 9 9 8 6 5 6 6 6 9 10 10 9 7 6 4 4 4 5 6 5 2 4 7 6 4 1 0 2 1 2 2 2 3 4 6 7 7 7 6 8 10 7 6 10 8 5 3 4 4 11 12 11 18 21 21 23 25 29 31 31 31 30 30
17 17 17 16 15 15 14 14 14 14 14 14 13 13 13 13 14 15 15 15 15 14 13 11 9 9 9 10 11 9 9 9 8 9 10 11 10 9 7 5 5 5 5 6 5 2 3 6 4 3 1 1 1 1 1 3 3 1 2 3 7 7 5 3 3 5 6 4 6 4 4 5 5 10 13 10 12 17 20 23 25 28 31 32 32 32 31 31
18 18 18 18 17 17 16 16 16 15 15 14 14 14 14 14 15 15 16 16 16 14 12 10 9 10 9 11 12 10 9 9 9 9 10 11 11 10 8 7 6 5 5 6 5 3 3 5 2 1 1 1 1 1 1 4 2 0 2 2 4 8 5 2 1 2 6 4 5 5 3 7 9 16 15 10 14 18 20 25 27 30 32 33 34 33 33 33
19 18 18 19 18 18 18 18 18 17 16 15 15 14 14 16 16 16 17 16 15 13 11 9 9 10 9 10 11 11 10 10 10 10 10 12 12 11 10 8 7 6 6 6 6 5 4 5 1 1 3 2 1 1 2 5 3 1 1 2 2 3 4 5 1 5 5 4 7 6 2 9 9 13 15 14 17 20 23 27 29 32 34 35 35 35 36 35
20 19 19 19 19 19 18 18 19 18 18 17 16 15 16 16 17 17 17 15 12 12 11 10 10 9 10 12 12 11 10 11 12 12 12 12 12 11 10 9 9 7 7 7 6 6 4 5 1 2 2 1 2 2 3 4 4 3 1 3 3 0 5 8 3 7 4 3 6 6 2 10 11 8 11 16 20 22 25 27 31 34 35 37 37 37 37 36
21 20 20 20 20 20 19 19 19 19 19 18 18 17 16 17 18 18 15 13 12 13 12 10 9 8 8 10 10 10 10 11 12 12 13 13 13 12 11 10 9 8 8 6 5 6 4 3 1 2 2 1 3 4 3 4 4 4 1 3 4 1 4 6 3 3 2 2 4 4 3 7 8 4 6 15 21 24 24 26 31 35 36 38 38 39 39 37
21 21 20 20 20 20 20 20 20 21 20 19 20 19 17 17 18 16 13 15 14 13 11 9 8 7 9 10 9 9 10 11 12 13 13 14 14 13 12 11 9 9 8 6 5 5 4 2 1 0 2 3 3 4 4 4 4 4 2 1 4 3 3 4 4 3 2 3 4 5 5 10 12 5 6 13 19 24 25 26 32 35 36 37 38 39 39 39
23 22 21 21 21 21 21 21 21 22 21 21 21 21 20 18 15 13 15 17 13 8 7 8 5 4 8 10 9 8 9 10 12 13 14 14 14 13 12 10 9 8 6 5 5 4 3 1 2 0 3 4 3 5 2 3 3 3 3 2 3 3 4 5 5 3 3 1 5 4 6 13 18 13 11 16 19 25 28 30 33 34 35 36 37 39 40 41
25 24 23 22 22 21 21 21 21 22 22 21 21 21 20 16 13 12 12 11 8 4 3 6 5 3 6 8 8 9 9 9 10 13 15 14 13 13 12 10 9 7 3 1 3 2 0 1 2 1 2 2 3 5 6 8 7 6 5 4 4 5 6 6 6 4 3 2 7 7 8 12 17 17 13 16 21 27 30 30 30 29 30 34 36 39 41 44
27 26 25 24 23 23 22 22 21 21 22 22 21 20 15 11 8 6 8 9 9 10 12 15 15 16 16 13 11 11 11 10 11 12 13 14 13 11 10 9 7 4 2 2 2 0 2 0 2 5 7 7 7 7 6 5 6 5 4 3 5 6 7 6 4 4 2 1 9 9 9 12 16 17 15 15 19 23 23 24 27 27 29 34 38 42 44 46
29 29 27 25 24 24 23 22 21 20 20 20 20 17 11 7 5 6 10 13 14 17 20 22 22 23 22 19 15 12 11 11 13 14 13 13 12 8 7 6 3 2 2 2 2 1 3 2 6 9 9 7 5 6 7 5 5 4 3 3 5 5 8 8 3 4 2 3 6 7 7 12 15 16 16 13 12 16 21 23 27 28 30 35 38 43 45 45
31 30 29 28 25 24 24 22 21 20 19 18 16 12 8 7 7 8 10 12 17 20 20 23 24 26 25 24 21 16 12 10 12 15 15 14 13 9 6 4 4 3 1 3 2 3 2 5 9 8 5 5 5 5 7 5 5 3 2 1 4 4 5 7 3 5 2 2 5 7 7 12 16 17 18 18 15 19 26 28 30 30 31 36 39 42 42 41
32 30 29 29 26 25 24 23 21 20 17 15 13 10 8 8 8 10 9 8 16 20 17 20 23 25 25 23 23 18 14 11 10 14 15 15 13 10 7 5 4 2 1 4 5 2 1 7 7 4 7 8 5 4 7 5 2 3 3 2 5 3 2 4 4 5 3 3 5 8 11 11 13 15 17 19 18 23 29 30 31 31 32 37 39 40 41 41
31 30 29 29 28 25 24 23 21 19 17 14 12 10 8 7 7 10 10 6 9 11 13 17 17 19 20 17 16 15 14 12 9 9 13 16 13 8 7 5 4 2 3 5 7 6 6 5 3 6 6 7 5 3 5 4 2 3 5 6 6 5 5 5 4 6 5 3 3 6 11 9 7 10 11 8 6 14 21 22 25 29 32 34 35 37 40 42
27 27 27 28 27 24 23 22 20 18 17 13 10 9 7 6 6 9 8 3 5 7 8 11 11 12 13 12 11 10 8 10 11 9 11 17 15 7 3 5 4 3 4 5 6 5 8 3 6 6 3 4 6 4 5 7 2 4 5 9 9 7 6 4 4 6 5 4 4 6 7 8 1 4 9 5 3 7 10 11 17 24 26 29 33 36 39 40
24 23 24 25 24 22 21 18 17 16 13 11 10 8 6 5 4 8 6 2 3 5 3 5 5 6 7 7 8 7 2 5 9 11 11 16 16 8 3 3 2 2 4 5 3 3 3 1 4 5 4 4 5 4 5 7 4 3 4 6 6 3 1 2 3 4 2 3 3 4 1 9 2 2 9 8 5 9 10 9 14 19 21 26 33 36 36 37
22 21 21 21 20 19 18 15 16 14 9 7 7 6 4 2 1 5 5 3 4 4 4 5 6 6 7 7 11 9 1 2 5 9 13 14 15 11 5 3 1 2 4 4 1 3 2 3 4 5 5 4 4 5 6 8 7 3 4 5 6 5 3 3 2 1 4 2 4 2 4 8 7 6 9 8 7 10 13 14 14 16 22 26 31 34 35 37
20 21 20 18 17 17 16 16 16 13 10 8 5 5 3 1 1 2 3 3 4 3 4 4 5 6 7 10 14 8 1 3 4 7 13 13 13 10 5 6 6 4 3 5 4 4 3 4 4 5 4 3 6 5 7 10 4 5 5 5 6 5 4 4 4 3 2 3 5 5 5 5 9 6 2 1 5 8 13 16 13 13 19 24 27 30 33 35
19 21 20 16 15 15 15 16 15 13 11 9 7 5 2 2 1 3 3 4 3 2 2 3 5 5 6 8 11 7 2 2 1 6 11 10 11 7 2 6 7 4 2 3 6 5 1 4 6 7 5 5 5 2 5 8 3 4 6 5 5 5 4 4 3 2 2 2 9 7 7 4 8 4 3 3 4 8 11 13 11 12 16 19 22 25 28 32
19 20 19 15 13 13 14 14 15 14 11 10 8 6 3 4 4 2 4 5 3 1 3 5 5 5 7 6 4 6 4 3 1 7 8 6 8 5 3 3 4 5 1 3 3 5 1 2 2 4 5 5 5 3 1 3 4 6 7 4 5 4 4 3 1 2 2 5 9 6 12 8 6 3 6 4 5 8 9 8 7 10 15 17 18 20 23 27
19 18 17 15 13 13 13 14 16 15 13 11 8 7 7 4 4 3 7 4 2 1 3 3 2 4 7 5 2 3 2 2 3 7 5 3 4 3 4 3 2 3 3 5 4 5 3 1 2 3 4 6 7 5 3 4 4 5 4 4 4 4 3 4 4 4 0 7 6 2 8 8 8 6 4 5 6 7 8 7 7 8 12 16 17 17 19 23
18 17 16 13 13 14 14 14 14 15 15 13 11 10 8 1 2 5 4 1 1 3 3 3 2 3 5 2 1 4 2 2 4 6 4 3 3 4 3 5 4 1 3 5 4 5 3 4 3 1 4 6 6 4 3 4 4 4 4 4 3 3 3 3 3 1 3 8 3 1 3 5 11 10 7 10 10 9 9 9 11 10 13 18 18 16 18 21
18 18 17 13 13 14 14 15 14 14 15 15 14 9 7 2 6 5 4 3 3 3 2 3 1 3 5 2 3 3 2 3 4 3 2 3 2 5 5 4 6 2 3 4 1 3 4 4 1 2 3 7 9 5 2 2 2 5 5 4 4 2 0 3 4 2 5 7 3 3 3 4 9 8 11 16 15 15 15 17 19 17 18 21 19 16 18 21
17 19 19 14 14 15 15 16 15 14 16 18 14 7 4 6 6 5 8 8 3 1 2 3 3 3 4 3 4 4 3 4 5 5 2 3 2 5 6 6 5 2 2 2 1 2 4 7 4 5 2 8 10 5 5 5 4 5 4 5 5 5 4 5 4 4 7 6 3 3 2 4 5 3 7 11 12 16 19 23 25 22 22 21 18 18 19 22
16 19 20 18 17 16 14 16 17 14 18 21 11 4 7 9 3 4 7 6 2 0 1 2 5 4 3 3 3 4 5 5 3 5 4 5 4 5 5 7 8 5 5 3 2 3 4 8 5 1 1 7 7 2 5 6 3 2 3 4 3 4 5 2 3 4 2 5 5 3 4 6 4 4 7 6 7 11 14 19 21 21 20 17 17 21 22 24
15 19 22 21 19 15 12 15 17 16 21 20 7 5 12 8 4 5 5 5 5 5 4 2 3 3 4 3 3 5 4 3 2 4 4 4 3 5 4 5 9 11 9 6 3 2 2 6 3 2 1 3 3 1 2 2 3 3 3 4 5 4 5 2 3 1 4 3 6 2 6 8 4 6 7 3 6 9 7 12 15 16 15 14 19 25 25 26
16 21 24 24 20 13 13 16 17 18 20 15 6 10 9 4 7 7 4 5 4 6 7 3 3 6 6 4 4 6 4 2 2 3 4 3 3 7 6 4 8 15 16 9 3 3 3 4 3 2 1 2 0 1 2 2 3 5 3 5 3 2 4 3 1 3 3 3 6 4 9 12 7 7 3 5 5 9 9 10 11 10 10 14 23 27 26 26
17 21 26 28 24 18 18 18 16 17 14 8 10 13 5 4 9 8 7 6 4 5 6 6 6 6 7 5 4 5 6 4 4 4 4 3 5 6 8 5 8 16 20 13 4 3 3 3 4 2 2 2 2 1 1 3 2 4 3 2 3 3 2 2 2 2 2 3 6 8 12 12 8 8 7 4 8 9 9 10 9 7 10 17 26 28 26 26
17 19 24 28 24 20 23 19 17 17 10 6 12 12 4 5 8 9 13 10 4 4 6 7 7 3 4 6 3 4 8 7 7 5 4 5 5 4 9 8 7 10 15 14 7 2 3 3 4 1 1 1 2 2 5 2 1 2 0 1 1 2 4 3 3 3 3 3 6 9 12 13 7 7 9 9 9 10 10 10 9 9 14 22 27 27 26 27
19 15 15 19 16 18 23 19 18 16 8 8 12 7 2 3 6 14 22 16 5 5 6 5 6 4 4 6 4 4 6 6 6 5 4 5 4 4 8 8 5 5 6 7 4 1 3 3 4 1 2 2 3 5 8 9 7 4 3 2 1 1 2 1 1 2 4 4 4 3 9 16 8 6 8 9 8 10 11 10 9 10 19 26 27 26 27 28
22 11 10 13 12 21 28 18 13 11 5 7 9 4 1 2 5 12 21 21 11 6 5 4 6 7 5 6 4 3 5 4 5 5 4 5 5 5 10 13 10 9 5 3 2 4 3 3 5 3 2 5 5 2 2 6 7 7 7 7 8 6 4 1 5 3 3 4 5 4 7 17 8 6 6 7 7 9 11 12 9 11 21 26 24 25 26 27
23 10 8 13 16 28 32 15 9 9 5 9 9 5 5 5 4 6 13 16 12 6 3 3 6 7 5 5 4 4 5 4 6 6 5 6 9 7 10 17 18 17 11 4 2 3 4 3 3 5 6 6 4 1 1 1 1 2 5 5 6 7 7 6 8 5 2 2 2 4 4 17 8 6 6 6 7 9 11 11 9 13 22 23 21 24 26 27
27 15 10 14 22 36 29 8 7 8 6 13 13 9 9 6 2 5 8 11 9 5 5 5 6 8 6 3 4 5 6 6 6 7 4 5 9 11 11 19 21 15 8 2 1 3 3 2 3 6 5 3 4 3 2 3 3 2 6 4 6 8 9 8 6 3 2 4 3 5 5 17 8 4 4 4 4 7 9 10 11 14 19 21 22 24 25 27
29 21 16 16 25 36 24 6 8 9 7 12 13 12 12 8 6 8 7 9 9 6 7 8 5 5 6 4 6 7 7 7 7 7 7 6 6 9 14 24 22 11 6 6 7 9 5 2 3 3 6 5 4 3 2 2 1 4 5 4 7 11 7 2 0 2 3 8 8 5 11 18 7 3 2 1 2 7 8 11 16 16 18 22 23 23 24 26
20 15 17 24 35 39 26 12 8 7 11 14 13 13 12 9 12 15 11 11 12 6 4 7 5 5 5 4 4 7 8 9 9 5 6 7 3 1 11 25 25 15 8 7 11 16 9 3 5 6 8 10 10 7 4 3 3 3 4 5 10 15 12 6 2 4 9 9 9 9 18 18 13 10 6 3 6 9 9 12 16 18 21 23 22 23 25 27
15 9 9 19 35 40 33 26 14 5 8 13 10 10 14 12 11 13 13 12 13 9 4 4 3 4 5 5 6 9 10 10 8 3 4 6 3 3 5 18 22 14 5 4 14 16 4 2 9 13 14 14 15 11 4 6 5 5 8 11 14 16 16 11 6 8 10 6 7 17 23 17 22 27 19 12 12 13 13 12 13 18 23 24 24 25 26 28
15 10 10 13 18 23 26 26 19 8 5 9 6 6 13 15 9 7 11 12 14 14 8 5 5 5 7 10 10 10 11 9 7 9 12 9 4 3 1 7 13 10 3 3 13 11 2 5 14 18 19 18 19 15 6 8 7 10 11 14 16 16 16 14 13 15 11 5 11 23 22 17 26 32 25 20 18 17 17 14 13 18 23 24 26 26 25 27
17 13 20 23 13 8 14 21 22 16 10 10 8 5 8 13 11 10 10 8 10 15 11 7 12 17 17 14 9 8 9 8 9 15 16 11 4 0 1 1 4 7 3 1 6 6 2 8 15 15 17 19 20 18 8 7 8 8 10 15 17 16 17 18 22 24 18 11 17 25 23 22 28 30 25 21 17 16 19 20 18 19 22 22 23 23 24 27
20 10 16 27 19 11 20 28 26 19 14 13 10 9 12 16 18 14 7 4 6 13 15 13 17 22 21 14 9 8 9 10 14 15 13 10 5 3 2 4 2 3 4 2 3 3 3 8 14 13 14 17 20 19 11 8 11 11 13 19 19 17 17 21 26 25 19 19 25 28 26 27 30 27 21 23 23 20 24 27 23 21 22 22 22 24 26 29
30 21 18 23 20 17 20 22 18 13 14 15 11 12 16 19 22 16 9 10 10 7 13 21 23 17 13 12 13 14 17 20 20 15 8 6 5 3 4 6 3 1 3 3 2 3 5 7 10 9 9 15 20 17 10 11 13 14 19 25 24 18 18 24 25 18 14 20 27 27 24 26 30 24 18 23 27 23 22 26 26 28 28 24 24 26 28 30
44 37 28 18 10 13 15 12 12 11 11 13 13 15 17 20 25 19 9 15 19 12 13 21 24 14 8 12 17 22 28 26 20 17 10 7 8 8 7 8 7 5 4 5 2 3 6 4 2 2 6 14 15 9 7 7 6 10 21 30 29 22 20 24 20 13 16 21 22 21 19 23 25 20 15 18 20 17 18 20 24 30 30 26 26 29 31 33
44 32 29 22 10 11 14 8 9 11 10 12 17 19 19 21 23 16 8 13 25 28 23 18 16 11 7 11 22 31 35 30 25 28 24 14 12 14 14 13 13 10 7 6 4 4 5 4 3 4 8 13 8 2 5 4 0 10 20 25 26 23 21 22 19 17 20 19 16 16 20 24 22 16 16 20 18 16 18 21 24 28 27 27 30 33 34 35
Wind_Direction
14 16 18 19 20 21 20 16 12 11 11 9 7 6 7 9 12 16 19 22 24 23 19 13 14 53 97 93 97 95 91 83 83 101 100 70 57 52 48 43 37 31 27 23 22 15 12 6 342 321 318 306 59 45 63 32 23 31 101 79 71 178 198 192 178 193 171 192 197 182 180 162 166 180 174 172 181 178 176 191 204 207 220 238 230 208 189 185
0 4 7 11 12 14 15 13 10 8 7 8 7 5 4 6 8 11 14 15 18 20 18 10 0 326 258 139 118 109 106 99 110 120 94 74 56 53 50 48 40 34 30 27 27 19 15 8 359 347 323 167 59 49 72 30 34 67 113 63 268 201 211 206 181 196 185 204 191 185 189 185 191 179 170 173 185 175 176 200 212 212 215 218 205 188 186 187
347 351 353 358 2 5 7 6 5 2 1 2 2 3 2 1 3 7 8 10 12 14 17 11 360 336 288 241 209 181 181 218 185 132 94 77 52 54 56 54 40 33 30 27 27 20 17 9 4 4 28 99 51 65 71 26 35 84 89 59 251 219 240 257 216 204 212 238 183 183 196 202 211 182 176 182 183 189 204 201 198 204 200 194 190 185 186 188
337 341 342 346 350 352 356 358 356 353 353 351 351 354 355 355 355 358 1 2 5 7 12 12 4 347 314 264 241 239 264 274 223 196 123 85 56 56 55 58 37 30 26 24 23 17 18 13 8 13 69 82 37 68 65 20 30 92 102 144 239 205 236 266 252 217 224 241 193 186 181 207 212 187 185 172 156 230 229 214 212 217 207 195 190 187 188 190
329 334 337 340 342 343 346 347 348 345 342 341 340 339 341 345 344 346 351 353 355 360 3 6 4 352 330 289 262 249 274 327 209 208 213 218 70 59 50 52 33 27 21 21 15 11 15 14 20 48 66 62 26 58 40 13 45 57 109 200 226 160 206 272 244 220 226 216 196 186 174 208 192 189 198 183 182 235 234 229 227 227 221 208 199 191 190 191
321 327 332 336 339 340 341 342 343 341 337 335 332 330 330 332 334 334 338 342 344 349 353 357 359 355 340 304 289 258 248 326 231 220 214 222 206 57 43 38 27 22 17 14 1 2 10 14 28 59 65 54 22 70 25 4 41 59 347 253 179 171 249 276 224 222 226 198 191 200 214 206 178 206 216 203 219 234 239 246 234 227 222 215 206 195 193 193
313 320 326 331 336 337 339 341 340 340 339 335 330 326 323 324 326 325 327 332 334 338 343 347 350 349 342 313 291 268 258 269 247 217 213 221 219 245 250 253 328 14 15 5 348 0 7 12 31 60 81 70 47 111 9 3 58 102 58 318 165 198 253 251 220 227 231 220 220 214 215 206 193 219 222 217 233 237 238 251 240 228 214 208 205 198 198 197
306 312 319 325 330 333 334 336 337 339 339 337 335 329 323 322 321 319 320 323 324 329 333 338 343 340 338 319 284 276 268 260 238 216 216 219 222 239 250 265 280 344 5 2 352 1 6 12 26 45 83 95 117 74 1 7 50 90 121 253 196 226 247 227 223 229 236 238 238 217 210 219 214 220 236 236 242 239 236 245 246 226 209 204 205 203 201 198
299 305 312 317 322 326 328 329 330 331 334 337 337 334 328 322 320 317 316 317 318 321 324 330 334 331 329 312 290 286 274 253 236 226 223 226 230 237 245 265 271 299 345 357 355 356 7 14 16 16 103 140 114 64 28 30 4 98 190 257 245 249 249 235 233 231 236 239 230 211 225 240 225 232 265 253 248 241 235 239 240 220 206 204 205 205 202 199
295 300 305 310 314 319 321 321 323 325 329 333 335 337 331 324 321 316 314 314 313 314 318 322 326 325 320 304 281 272 285 276 246 235 232 234 234 238 245 259 272 289 329 345 349 352 8 11 7 15 102 133 93 74 70 85 285 293 289 276 262 263 261 246 238 235 235 238 225 212 237 256 199 192 265 255 240 232 229 226 224 213 206 205 205 205 203 203
297 300 302 305 308 311 314 316 319 320 323 328 331 335 331 325 321 315 314 313 309 310 312 316 319 315 312 296 251 242 285 291 264 247 240 237 235 239 248 256 273 289 311 332 338 327 1 5 5 18 79 122 18 119 118 69 316 306 314 289 281 290 275 242 234 235 226 239 232 217 252 274 131 187 249 252 230 222 220 215 212 207 206 206 204 203 202 205
296 300 302 304 306 308 310 312 315 317 321 325 328 330 329 324 319 314 314 311 307 306 307 311 314 312 309 285 260 265 284 282 273 258 243 238 236 239 250 259 273 289 300 320 325 294 354 359 357 10 25 239 340 85 90 12 346 320 39 317 300 346 344 250 241 225 196 228 230 193 281 265 189 226 247 251 228 215 211 210 207 205 206 205 203 203 204 206
291 295 299 301 304 306 308 311 313 315 318 321 324 327 326 322 317 315 313 309 304 302 305 306 305 309 301 277 274 281 281 273 267 256 245 242 240 241 250 258 269 282 288 304 305 271 338 351 342 16 85 130 39 111 324 348 14 238 69 50 319 357 356 242 85 168 176 214 194 138 285 265 222 232 242 241 220 205 201 206 206 205 205 205 204 204 205 206
283 288 293 296 300 303 306 308 310 313 316 319 321 323 323 319 315 315 312 305 300 298 300 299 301 306 285 271 284 284 271 266 260 252 249 244 240 243 249 257 267 281 281 293 296 261 307 345 336 109 93 89 90 163 333 358 32 345 17 50 20 358 295 277 247 150 162 215 185 137 258 266 260 243 237 233 222 207 202 205 207 207 207 206 206 207 209 209
279 283 287 291 294 298 301 304 307 310 313 316 317 319 321 317 312 314 310 301 297 294 295 292 292 296 281 275 281 277 264 255 251 250 247 243 242 243 248 257 263 276 276 279 282 256 292 330 241 107 87 99 74 81 358 356 12 20 351 311 341 29 271 302 294 173 180 216 178 153 235 268 278 266 234 223 217 211 208 208 209 211 210 209 209 209 211 212
275 278 282 286 290 294 297 301 303 305 309 313 315 316 319 316 312 312 304 297 294 289 288 285 283 283 277 278 277 269 259 246 243 245 243 241 242 243 247 256 263 274 273 274 275 251 282 326 108 77 77 131 90 80 39 6 345 4 49 257 280 283 291 319 324 201 198 160 182 202 230 276 276 260 215 210 211 212 211 212 214 215 214 212 212 212 212 213
270 273 277 281 284 289 293 297 300 302 305 309 311 312 316 315 311 306 296 295 294 285 278 270 274 277 267 269 271 265 257 246 241 240 239 239 241 244 249 256 262 268 266 264 265 249 269 300 155 91 59 67 73 85 41 349 309 321 10 267 254 250 271 302 312 338 66 163 217 226 228 258 262 249 205 212 217 215 213 218 221 220 217 215 214 214 214 213
267 269 272 275 279 284 288 292 297 299 302 307 311 313 317 317 311 301 294 292 286 278 273 259 255 279 266 257 251 258 260 247 241 238 237 238 240 244 251 257 259 261 264 260 249 232 261 293 129 13 18 20 38 91 106 250 218 234 251 262 282 272 242 252 269 316 32 237 232 221 235 255 265 266 241 231 228 220 220 226 228 225 220 217 216 215 215 215
265 267 269 272 275 279 282 287 292 296 300 304 308 313 317 318 310 300 297 286 256 234 264 247 225 229 266 269 256 257 260 248 242 239 238 237 240 245 249 253 253 248 235 219 233 203 268 349 90 60 307 258 208 152 186 210 179 186 201 192 235 266 260 238 234 269 14 317 260 235 234 254 267 271 256 238 229 225 229 233 232 228 222 220 219 219 218 218
263 264 266 268 270 274 277 282 287 292 299 303 310 317 324 328 320 311 310 290 251 252 272 271 263 257 263 276 273 259 256 254 249 242 238 236 236 245 247 244 244 238 193 168 220 76 70 320 217 221 232 225 217 188 173 168 140 136 146 179 227 242 268 258 228 288 25 255 268 249 236 254 262 268 268 250 229 226 231 233 234 228 223 223 221 223 222 221
262 262 263 265 266 270 273 277 283 288 296 303 314 325 337 340 323 312 313 300 272 266 273 275 271 262 260 263 264 259 256 259 255 242 238 234 228 231 234 225 200 214 245 148 161 30 65 214 234 228 225 213 196 159 125 118 107 104 159 224 264 234 258 270 255 313 8 169 266 273 254 256 257 264 271 256 224 227 229 228 235 229 224 227 225 226 226 225
262 262 263 264 264 266 269 273 278 283 291 300 310 321 327 318 307 307 312 299 284 280 274 270 267 262 259 256 255 256 254 261 260 244 235 228 220 217 211 179 153 196 263 102 115 3 9 244 243 226 182 114 94 107 102 107 113 100 143 194 276 248 272 292 319 354 16 173 271 292 276 263 260 262 265 254 237 245 243 237 241 235 227 229 229 230 228 225
264 263 264 264 263 264 266 269 272 277 284 291 300 307 307 307 309 312 309 288 288 290 275 265 263 260 258 255 253 251 244 247 258 247 232 219 212 209 195 162 152 177 156 156 170 172 247 251 245 186 139 110 78 86 98 93 116 148 151 174 260 271 302 285 311 340 313 236 270 288 280 264 256 257 261 258 247 252 255 251 250 244 236 237 237 236 231 226
268 266 265 264 263 262 263 265 268 273 278 282 291 291 290 300 312 319 312 282 282 288 270 258 256 257 255 251 249 241 234 235 248 244 221 208 198 198 200 170 145 194 229 190 171 195 239 245 163 120 124 129 130 144 136 149 256 249 198 200 241 257 238 238 295 328 315 303 312 311 294 270 238 245 259 274 263 256 258 253 249 245 242 243 243 240 236 231
275 272 268 265 263 262 262 264 266 268 271 274 278 276 281 296 314 331 326 297 279 283 269 254 249 252 247 241 235 220 221 235 238 235 213 201 192 182 190 168 164 217 219 162 151 230 260 230 145 129 97 129 155 200 193 175 214 298 234 212 228 243 252 272 334 347 347 328 337 12 320 283 228 230 258 289 324 278 264 246 246 247 242 240 240 240 237 234
280 278 273 268 265 262 259 260 263 264 266 266 261 258 274 290 323 339 343 15 291 270 239 216 220 223 215 215 198 174 205 255 226 218 205 198 196 184 162 159 163 216 177 142 148 238 260 96 116 140 140 143 168 236 233 170 141 302 254 202 205 192 191 298 355 357 300 260 301 58 297 274 275 193 253 264 270 278 274 260 256 255 247 240 242 242 237 234
283 281 278 274 269 261 253 248 252 255 252 254 249 241 261 278 357 357 5 360 276 227 166 176 184 185 195 190 166 153 219 232 178 196 194 194 198 191 201 198 117 207 175 137 222 245 152 88 58 101 120 141 180 243 227 155 129 243 232 132 124 123 152 197 121 250 243 272 298 173 178 274 275 235 250 250 250 274 275 271 268 256 248 245 248 246 240 237
284 283 282 279 270 258 248 241 244 245 236 235 232 223 239 241 241 38 55 295 268 154 139 175 167 179 189 181 178 172 173 154 142 193 189 187 195 188 220 219 175 191 178 145 223 261 132 158 185 144 123 182 202 229 196 158 146 240 204 125 114 124 154 160 144 230 270 13 293 216 154 279 272 243 285 270 227 254 261 261 264 254 248 249 253 251 244 240
283 283 286 282 269 255 244 237 233 233 229 223 221 226 221 171 170 66 98 245 269 109 142 171 160 182 166 159 192 208 195 174 166 187 179 179 193 185 211 211 165 150 172 159 220 260 109 175 196 154 155 216 212 232 188 167 179 191 148 106 75 77 85 94 128 221 24 336 270 229 164 241 273 221 122 82 208 233 247 253 260 260 256 256 258 256 248 242
285 285 286 280 266 249 238 230 225 224 219 212 216 213 170 146 127 104 219 237 260 133 131 158 173 174 148 137 217 231 210 236 156 153 166 171 188 177 134 156 119 118 18 346 262 261 353 115 197 174 183 185 140 88 70 118 136 134 112 72 34 36 49 50 59 68 34 275 274 234 178 194 282 242 162 178 204 206 219 243 261 265 264 265 266 261 252 244
288 290 288 278 264 246 232 224 219 215 208 202 197 173 155 133 102 173 223 234 272 226 128 171 199 146 154 156 208 213 194 254 182 157 169 168 170 145 118 138 95 84 353 324 283 302 347 147 229 222 177 137 102 75 45 62 104 113 87 58 15 339 14 20 354 44 334 256 280 264 180 186 248 248 196 236 251 216 204 223 244 253 265 273 275 267 257 249
292 295 292 273 260 248 230 220 213 205 201 192 179 162 146 153 232 198 219 311 262 214 165 183 206 158 174 170 192 188 166 227 193 166 168 160 172 186 186 190 168 101 306 256 266 332 306 226 229 187 181 161 119 77 24 5 50 97 95 82 53 323 346 346 309 71 229 249 264 169 164 212 247 244 229 245 255 238 215 219 237 251 269 276 278 272 262 251
288 292 291 273 261 255 231 217 208 196 194 185 175 153 116 211 232 184 188 229 222 210 148 129 133 143 145 144 233 196 158 215 192 169 171 136 177 232 246 219 171 173 252 211 281 336 294 289 166 148 235 191 165 152 206 254 139 148 148 133 143 151 302 272 272 278 269 270 258 172 150 264 272 259 226 228 234 232 229 237 249 261 268 273 277 273 264 252
274 281 285 270 256 255 234 215 203 191 186 178 166 131 125 230 227 160 195 220 234 13 65 96 100 116 148 186 233 191 178 230 175 150 174 131 165 238 240 226 194 148 114 147 192 187 248 287 212 178 215 179 180 192 165 142 143 176 155 138 160 155 172 226 233 242 274 294 264 201 177 245 269 282 216 220 234 236 237 246 255 263 264 268 273 267 258 248
269 272 278 272 257 249 233 212 200 189 179 172 156 137 206 222 198 165 206 209 217 232 44 45 94 110 230 252 263 216 206 234 154 133 180 176 185 211 201 203 195 158 130 169 232 164 218 267 248 215 86 157 178 207 120 112 134 201 125 118 183 184 169 210 215 197 265 316 278 210 217 234 237 269 245 227 243 241 242 249 253 258 261 262 263 257 251 245
266 263 266 268 260 245 234 218 202 189 180 168 152 215 220 220 172 183 199 171 182 158 111 19 94 134 248 265 260 234 202 217 156 145 203 207 218 216 200 205 190 179 176 176 198 165 199 272 282 29 22 157 171 181 117 133 186 166 137 175 215 184 129 120 267 16 63 294 274 250 255 274 312 284 258 193 223 239 246 253 249 252 256 253 253 252 246 242
253 255 257 259 259 242 233 229 206 191 184 171 189 222 216 213 186 183 176 153 160 137 136 209 201 176 219 239 226 205 174 201 178 169 207 216 234 206 197 237 196 188 198 191 202 210 187 265 274 105 197 239 111 107 52 37 126 131 184 210 196 133 95 102 244 344 32 252 274 282 267 280 295 286 293 114 195 246 248 246 248 250 244 239 247 248 244 241
244 251 257 258 259 240 225 229 211 193 184 177 227 235 212 194 198 179 161 158 139 130 160 215 214 181 198 217 227 183 169 189 178 175 199 209 246 191 162 209 202 194 203 195 205 247 163 244 279 99 201 270 30 102 97 12 87 134 197 215 122 140 160 112 151 236 252 238 272 282 281 277 249 248 270 197 192 229 240 239 242 241 228 231 242 246 241 238
236 244 255 258 257 231 214 216 205 193 186 194 228 237 215 201 211 188 180 177 151 156 186 222 219 195 190 189 186 174 184 193 175 178 201 197 233 195 162 192 202 196 200 184 187 236 128 210 262 350 257 279 42 181 190 202 46 78 244 316 28 160 174 162 156 179 187 211 268 288 294 280 231 199 248 238 197 201 221 232 231 227 225 230 238 242 238 235
220 230 253 252 243 210 198 198 194 190 194 218 225 232 206 206 223 211 205 200 182 182 204 219 205 216 218 193 190 184 194 205 179 186 226 200 217 234 195 191 163 162 186 163 174 195 109 192 234 295 332 229 195 210 197 185 166 153 189 206 231 167 114 199 220 140 145 188 242 271 281 277 255 167 213 228 201 197 207 219 221 219 229 234 238 241 239 237
206 225 246 225 203 189 184 182 193 197 219 246 243 255 278 256 234 223 219 216 218 220 205 184 194 209 208 199 208 178 175 206 191 196 241 215 220 246 207 191 159 137 129 95 177 199 154 184 206 196 231 219 216 235 196 187 175 178 194 192 192 172 118 210 246 214 160 189 208 182 261 275 269 139 186 210 194 199 207 216 219 217 229 235 238 240 241 241
198 221 229 194 180 179 176 175 201 203 221 236 242 260 241 240 239 225 223 220 225 242 228 206 211 211 202 192 190 166 170 198 201 204 239 226 219 229 202 183 164 149 145 141 200 183 113 111 204 231 234 229 248 336 99 206 172 197 219 194 179 168 154 192 227 226 174 201 203 108 263 271 260 137 174 198 184 208 217 215 214 222 231 235 238 242 243 243
201 206 194 183 181 176 171 181 217 197 227 231 238 259 244 238 241 212 212 212 214 219 223 229 212 210 225 194 163 182 192 205 206 198 220 239 227 231 202 172 160 151 144 137 152 121 95 116 213 261 284 318 341 6 57 42 47 254 242 186 169 199 199 204 220 191 151 211 182 99 251 260 259 118 182 210 189 227 232 219 219 226 232 237 241 243 244 242
205 202 185 177 179 177 175 196 210 201 231 229 234 250 245 246 240 223 209 202 204 197 216 233 214 211 233 181 178 208 194 204 225 202 206 233 236 233 196 171 165 169 183 192 176 165 170 172 161 247 294 305 310 330 353 335 196 223 240 183 194 218 208 189 54 120 235 222 166 140 247 252 259 83 139 176 241 252 244 226 228 234 237 242 245 246 245 240
201 199 187 183 183 186 196 214 204 204 220 221 232 239 242 257 245 235 230 218 216 207 219 242 221 205 218 179 204 228 201 213 238 216 211 230 251 272 186 180 181 188 212 217 170 161 174 185 167 204 239 242 249 253 234 218 191 219 244 199 208 215 202 200 199 191 235 223 156 194 244 255 275 270 237 218 247 255 252 234 233 240 244 247 248 247 244 237
190 187 179 182 187 195 211 220 217 219 213 215 230 230 229 243 250 239 230 226 230 229 244 273 220 195 212 200 222 239 226 228 238 235 238 228 239 344 186 192 196 197 228 218 163 156 156 209 197 216 227 229 243 248 188 124 148 202 220 214 217 217 208 212 220 209 226 223 194 230 243 262 276 269 261 259 259 263 266 256 245 245 248 251 251 250 246 238
188 199 185 172 188 206 219 221 217 219 198 191 199 213 220 230 248 240 216 214 217 214 228 265 223 208 220 209 218 237 231 229 233 239 247 236 233 316 261 205 215 218 245 187 170 161 116 227 218 227 232 235 250 252 187 135 191 211 209 220 225 220 211 212 224 223 215 206 239 245 247 254 262 263 266 268 266 268 270 267 262 258 256 255 253 248 241 233
198 214 199 185 178 196 211 212 208 205 195 187 197 218 220 223 230 222 209 209 205 196 204 238 225 222 225 210 209 234 228 228 235 235 240 237 212 293 296 247 230 223 220 184 193 173 156 233 232 233 238 244 254 253 212 171 226 229 214 226 227 219 212 213 226 228 216 214 243 250 250 251 255 260 264 265 263 266 271 275 276 269 262 255 247 240 233 230
206 223 205 197 198 198 202 206 203 199 202 202 206 222 224 228 230 220 185 170 218 200 197 222 230 224 225 217 212 229 226 227 235 232 232 231 203 145 222 253 248 201 180 186 238 191 165 240 242 239 249 252 251 251 232 212 245 252 244 243 235 223 219 223 230 231 222 228 244 251 256 258 259 259 262 267 268 270 277 281 279 269 261 253 242 235 233 231
211 214 202 197 209 214 206 205 197 193 207 207 208 222 224 231 235 227 187 184 213 203 193 222 236 225 210 212 218 230 230 227 235 239 215 192 198 171 198 228 221 134 199 215 246 210 201 234 242 236 252 255 252 252 234 222 240 249 255 256 247 234 232 236 237 231 225 237 245 252 261 262 261 260 261 268 272 275 277 276 271 267 263 254 243 239 237 235
220 220 207 195 210 212 205 203 191 195 210 202 209 222 221 229 233 230 217 207 216 216 197 216 235 231 198 207 218 231 235 232 240 251 231 188 204 208 204 208 188 162 206 211 182 195 205 226 253 204 240 254 257 251 213 208 236 249 253 255 249 238 236 242 242 222 216 234 246 253 257 256 260 268 269 267 268 267 265 264 264 265 263 251 242 241 240 238
224 226 213 208 217 199 198 206 190 198 212 202 209 218 216 226 230 226 234 227 221 225 221 214 226 228 206 213 221 229 236 239 246 254 253 249 241 231 226 219 199 185 184 182 184 191 183 205 225 197 233 256 264 157 141 131 191 251 249 248 245 242 239 245 252 236 220 224 236 244 247 250 260 274 274 269 265 256 255 256 257 259 257 249 244 243 243 242